Location: Peebles
(55.6412°N, 3.1714°W)
Time: 21:55:31
(UTC+00:00)

deb Agena D - Pass Details

Date: 23 September 2023
Orbit: 794 x 979 km, 99.8° (Epoch: 28 November)

Event Time Altitude Azimuth Distance (km) Brightness Sun altitude
Rises 04:32:07 0° 19° (NNE) 3,687 10.3 -20.4°
Reaches altitude 10° 04:36:05 10° 353° (N) 2,745 9.2 -20.0°
Maximum altitude 04:38:41 13° 328° (NNW) 2,527 8.7 -19.6°
Drops below altitude 10° 04:41:16 10° 303° (WNW) 2,737 8.6 -19.3°
Enters shadow 04:41:57 - 297° (WNW) 2,856 8.6 -19.3°
